TimeCDT,TemperatureF,Dew PointF,Humidity,Sea Level PressureIn,VisibilityMPH,Wind Direction,Wind SpeedMPH,Gust SpeedMPH,PrecipitationIn,Events,Conditions,WindDirDegrees,DateUTC
12:15 AM,50.4,36.7,59,29.85,10.0,North,12.7,-,N/A,,Clear,10,2014-04-26 05:15:00
12:35 AM,50.4,37.4,61,29.86,10.0,North,13.8,-,N/A,,Clear,10,2014-04-26 05:35:00
12:50 AM,47.8,38.1,69,29.86,10.0,NNE,11.5,-,N/A,,Clear,20,2014-04-26 05:50:00
1:15 AM,46.9,34.7,62,29.87,10.0,North,13.8,18.4,N/A,,Clear,10,2014-04-26 06:15:00
1:35 AM,45.3,33.3,63,29.88,10.0,NNE,3.5,-,N/A,,Clear,20,2014-04-26 06:35:00
1:55 AM,44.2,30.9,60,29.89,10.0,North,4.6,-,N/A,,Clear,10,2014-04-26 06:55:00
2:15 AM,43.9,32.2,63,29.89,10.0,Calm,Calm,-,N/A,,Clear,0,2014-04-26 07:15:00
2:35 AM,41.9,32.0,68,29.90,10.0,North,4.6,-,N/A,,Clear,360,2014-04-26 07:35:00
2:50 AM,41.0,31.6,69,29.90,10.0,Calm,Calm,-,N/A,,Clear,0,2014-04-26 07:50:00
3:10 AM,40.5,31.5,70,29.91,10.0,North,4.6,-,N/A,,Clear,360,2014-04-26 08:10:00
3:30 AM,41.5,29.8,63,29.91,10.0,North,5.8,-,N/A,,Clear,10,2014-04-26 08:30:00
3:55 AM,38.7,30.9,74,29.92,10.0,Calm,Calm,-,N/A,,Clear,0,2014-04-26 08:55:00
4:15 AM,36.3,30.6,80,29.93,10.0,Calm,Calm,-,N/A,,Clear,0,2014-04-26 09:15:00
4:30 AM,37.0,31.8,81,29.93,10.0,Calm,Calm,-,N/A,,Clear,0,2014-04-26 09:30:00
4:55 AM,36.0,31.8,85,29.94,10.0,Calm,Calm,-,N/A,,Clear,0,2014-04-26 09:55:00
5:10 AM,36.7,32.0,83,29.94,10.0,North,5.8,-,N/A,,Clear,360,2014-04-26 10:10:00
5:30 AM,38.3,31.6,77,29.96,10.0,North,4.6,-,N/A,,Clear,350,2014-04-26 10:30:00
5:55 AM,37.4,31.6,80,29.96,10.0,North,6.9,-,N/A,,Clear,350,2014-04-26 10:55:00
6:15 AM,37.9,31.3,77,29.97,10.0,North,5.8,-,N/A,,Clear,10,2014-04-26 11:15:00
6:35 AM,39.0,31.1,73,29.97,10.0,NNE,10.4,-,N/A,,Clear,20,2014-04-26 11:35:00
6:55 AM,39.6,31.8,74,29.98,10.0,North,6.9,-,N/A,,Clear,10,2014-04-26 11:55:00
7:15 AM,40.3,32.0,72,29.98,10.0,NNE,9.2,-,N/A,,Clear,30,2014-04-26 12:15:00
7:35 AM,40.8,31.8,70,29.99,10.0,NNE,15.0,-,N/A,,Clear,30,2014-04-26 12:35:00
7:55 AM,41.7,31.1,66,30.00,10.0,NNE,13.8,-,N/A,,Clear,30,2014-04-26 12:55:00
8:15 AM,42.4,30.9,64,30.00,10.0,NNE,16.1,-,N/A,,Clear,20,2014-04-26 13:15:00
8:35 AM,43.2,31.1,62,30.00,10.0,NE,13.8,-,N/A,,Clear,40,2014-04-26 13:35:00
8:55 AM,44.6,31.8,61,30.01,10.0,NE,8.1,-,N/A,,Clear,50,2014-04-26 13:55:00
9:15 AM,45.3,30.4,56,30.00,10.0,NE,9.2,16.1,N/A,,Clear,50,2014-04-26 14:15:00
9:35 AM,46.2,30.4,54,30.00,10.0,NE,12.7,-,N/A,,Clear,40,2014-04-26 14:35:00
9:55 AM,47.5,31.3,53,30.00,10.0,NE,11.5,18.4,N/A,,Clear,50,2014-04-26 14:55:00
10:10 AM,47.5,30.6,52,30.00,10.0,NE,12.7,-,N/A,,Clear,40,2014-04-26 15:10:00
10:50 AM,49.3,30.9,49,30.01,10.0,NE,12.7,18.4,N/A,,Clear,40,2014-04-26 15:50:00
11:10 AM,50.2,30.4,47,30.01,10.0,NNE,12.7,-,N/A,,Clear,20,2014-04-26 16:10:00
11:30 AM,50.9,30.9,46,30.02,10.0,East,10.4,17.3,N/A,,Clear,80,2014-04-26 16:30:00
11:50 AM,51.6,30.4,44,30.02,10.0,NE,11.5,-,N/A,,Clear,50,2014-04-26 16:50:00
12:10 PM,52.2,31.1,45,30.02,10.0,ENE,9.2,-,N/A,,Clear,60,2014-04-26 17:10:00
12:30 PM,52.3,30.7,44,30.03,10.0,East,9.2,-,N/A,,Clear,80,2014-04-26 17:30:00
12:50 PM,53.4,31.5,43,30.02,10.0,ENE,9.2,17.3,N/A,,Clear,70,2014-04-26 17:50:00
1:10 PM,54.1,32.7,44,30.03,10.0,NE,12.7,17.3,N/A,,Clear,50,2014-04-26 18:10:00
1:30 PM,54.0,32.0,43,30.02,10.0,ENE,8.1,16.1,N/A,,Clear,70,2014-04-26 18:30:00
1:50 PM,55.0,32.0,42,30.02,10.0,East,11.5,19.6,N/A,,Clear,80,2014-04-26 18:50:00
2:10 PM,54.1,31.6,42,30.02,10.0,NE,11.5,17.3,N/A,,Clear,50,2014-04-26 19:10:00
2:30 PM,54.5,33.6,45,30.02,10.0,ENE,12.7,19.6,N/A,,Clear,70,2014-04-26 19:30:00
2:50 PM,54.0,33.1,45,30.02,10.0,East,15.0,21.9,N/A,,Clear,80,2014-04-26 19:50:00
3:10 PM,52.3,32.5,47,30.01,10.0,ENE,15.0,21.9,N/A,,Clear,70,2014-04-26 20:10:00
3:30 PM,51.6,32.7,49,30.00,10.0,ENE,15.0,20.7,N/A,,Clear,60,2014-04-26 20:30:00
3:50 PM,50.9,32.2,49,30.01,10.0,ENE,16.1,-,N/A,,Scattered Clouds,70,2014-04-26 20:50:00
4:10 PM,52.2,32.4,47,30.01,10.0,East,12.7,18.4,N/A,,Overcast,80,2014-04-26 21:10:00
4:30 PM,52.2,32.5,47,30.01,10.0,ENE,13.8,20.7,N/A,,Scattered Clouds,60,2014-04-26 21:30:00
4:50 PM,52.0,32.5,48,30.01,10.0,ENE,12.7,17.3,N/A,,Clear,60,2014-04-26 21:50:00
5:10 PM,51.6,32.2,47,30.02,10.0,ENE,15.0,-,N/A,,Clear,70,2014-04-26 22:10:00
5:30 PM,51.8,32.9,49,30.01,10.0,ENE,12.7,19.6,N/A,,Clear,70,2014-04-26 22:30:00
5:50 PM,50.4,32.7,51,30.00,10.0,ENE,16.1,19.6,N/A,,Clear,60,2014-04-26 22:50:00
6:10 PM,50.2,33.1,52,30.00,10.0,ENE,12.7,-,N/A,,Clear,60,2014-04-26 23:10:00
6:30 PM,49.1,32.4,53,30.00,10.0,East,12.7,-,N/A,,Clear,80,2014-04-26 23:30:00
6:50 PM,48.2,33.1,56,30.00,10.0,East,16.1,-,N/A,,Clear,80,2014-04-26 23:50:00
7:10 PM,48.4,32.5,54,30.00,10.0,East,13.8,19.6,N/A,,Clear,80,2014-04-27 00:10:00
7:30 PM,47.3,32.9,57,30.01,10.0,East,15.0,21.9,N/A,,Clear,100,2014-04-27 00:30:00
7:50 PM,46.4,32.0,57,30.01,10.0,East,11.5,-,N/A,,Clear,90,2014-04-27 00:50:00
8:10 PM,45.9,32.0,58,30.03,10.0,East,15.0,21.9,N/A,,Clear,100,2014-04-27 01:10:00
8:30 PM,45.5,32.0,59,30.02,10.0,East,11.5,18.4,N/A,,Clear,90,2014-04-27 01:30:00
8:50 PM,44.8,32.0,61,30.02,10.0,East,16.1,-,N/A,,Clear,80,2014-04-27 01:50:00
9:10 PM,44.1,30.4,59,30.03,10.0,East,13.8,21.9,N/A,,Clear,90,2014-04-27 02:10:00
9:35 PM,43.7,29.1,57,30.03,10.0,East,15.0,23.0,N/A,,Clear,80,2014-04-27 02:35:00
9:50 PM,43.3,29.3,58,30.04,10.0,East,17.3,21.9,N/A,,Clear,80,2014-04-27 02:50:00
10:10 PM,42.8,29.3,59,30.03,10.0,East,18.4,24.2,N/A,,Clear,80,2014-04-27 03:10:00
10:30 PM,42.4,28.8,58,30.03,10.0,East,12.7,23.0,N/A,,Clear,80,2014-04-27 03:30:00
10:50 PM,41.9,28.6,59,30.03,10.0,ENE,13.8,18.4,N/A,,Clear,70,2014-04-27 03:50:00
11:10 PM,41.9,27.3,56,30.02,10.0,ENE,18.4,25.3,N/A,,Clear,70,2014-04-27 04:10:00
11:35 PM,41.9,27.9,58,30.04,10.0,ENE,13.8,18.4,N/A,,Mostly Cloudy,60,2014-04-27 04:35:00
11:50 PM,41.9,27.9,58,30.05,10.0,ENE,13.8,21.9,N/A,,Overcast,60,2014-04-27 04:50:00